Simultaneous Nadir Overpasses (SNOs) Predictions

Prediction of SNOs between GOES-17 and NOAA-20 Satellite Orbit:

Table of predicted SNOs for the next 14.0 days since TLE Epoch: 10/8/2022
Index Date Time (GOES-17) GOES-17 Lat,Lon NOAA-20 Lat,Lon Distance(km) Time Diff (sec)
1 10/09/2022 10:37:06 0.04,-137.32 0.27,-138.36 118.87 80
2 10/10/2022 10:21:02 0.05,-137.31 -0.75,-133.83 396.99 80
3 10/11/2022 22:40:18 -0.04,-137.30 -0.45,-139.14 209.49 80
4 10/12/2022 22:24:14 -0.04,-137.29 0.57,-134.61 305.99 80
5 10/14/2022 10:43:21 0.04,-137.28 0.62,-139.87 295.93 80
6 10/15/2022 10:27:17 0.04,-137.26 -0.41,-135.35 219.01 80
7 10/16/2022 22:46:33 -0.03,-137.24 -0.78,-140.65 388.94 80
8 10/17/2022 22:30:28 -0.03,-137.22 0.25,-136.12 125.72 80
9 10/19/2022 10:49:36 0.02,-137.20 0.94,-141.39 477.27 80
10 10/20/2022 10:33:30 0.02,-137.18 -0.04,-136.85 37.12 80
